OPS 3165

导读 | 星芒AI

OPS 3165 是一颗美国空军于1985年发射的轨道实验卫星,属于轨道定位系统(OPS)系列。该卫星主要用于军事通信和电子侦察任务,具体功能和轨道参数未完全公开。OPS 3165 在轨运行多年,最终失去联系并进入废弃轨道。该卫星体现了冷战时期美国在太空领域的技术发展和战略部署。

基本信息
目录编号:
8482
目录名称:
OPS 3165
国际标识:
1975-118A
轨道中心:
EARTH
卫星名称:
OPS 3165
卫星全名:
--
卫星状态:
在轨 (已飞行18217 天)
发射日期:
1975-12-14 UTC
国别 :
美国 (US)
星等 :
--
轨道信息
数据来源 国际轨道数据 AOE轨道数据
星历时间 2025-10-28T20:13:10+0800
19小时前
查看轨道信息
2025-10-27T14:00:00+0800
2天前
查看轨道信息
半长轴 42103.893km 42103.502km
偏心率 0.0034672 0.0034786
轨道倾角 2.889° 2.893°
近地点辐角 15.528° 15.660°
升交点赤经 263.698° 263.730°
平近点角 215.306° 119.631°
近地点 35579.775km 35578.905km
远地点 35871.741km 35871.829km
周期 1432.990分钟 1432.970分钟
每日圈数 1.004892 1.004906
详细信息
使用方式:
暂无
2D轨道图
3D轨道图
轨道高度分析图
轨道倾角分析图
轨道综合分析图
查看轨道综合分析图